Погода в Бичурине

Россия / Пермский край     56°50′45″N   55°25′35″E
темп.,
°C
ветер,
м/с
пор.,
м/с
влажн.,
%
обл.,
%
осадки,
мм/ч
давл.,
гПа
погр.,
м
17 мая, пн
пн1723:00+20ююз356122 0.0 101771
02:00+17юз3868100 0.0 1017148
05:00+17ююз4136599 0.0 1017277
08:00+20зюз4115850 0.0 1016330
11:00+26зюз584397 0.0 1016830
14:00+28зюз6113452 0.0 10162385
17:00+27з5943100 0.0 10161907
20:00+24зюз410555 0.0 1015354
18 мая, вт
вт1823:00+17с248589 2.7 101790
02:00+16сз2380100 0.2 101741
05:00+14сз228673 0.2 101811
08:00+17ссз46775 0.0 1018371
11:00+20с46530 0.0 10191043
14:00+22с464469 0.0 10191480
17:00+23с464299 0.0 10191772
20:00+20св48594 0.0 1020348
19 мая, ср
ср1923:00+14всв411780 0.0 1022328
02:00+12всв410880 0.0 1023280
05:00+10в410900 0.0 1024293
08:00+13в47725 0.0 1025464
11:00+17в46515 0.0 1024859
14:00+21в453961 0.0 10241196
17:00+22в343651 0.0 10231357
20:00+19в22545 0.0 102237
20 мая, чт
чт2023:00+14в226549 0.0 102315
02:00+13вюв1266100 0.0 102311
05:00+11юв246963 0.0 102465
08:00+16ю37576 0.0 1024315
11:00+20ю454551 0.0 1024833
14:00+23ююз34405 0.0 10221398
17:00+23ююз333860 0.0 10211487
20:00+20юз22582 0.0 102133
21 мая, пт
пт2123:00+15юз11620 0.0 102111
02:00+13вюв1164100 0.0 102111
05:00+13вюв1166100 0.0 102110
08:00+18в125853 0.0 1021135
11:00+23вюв334349 0.0 10201001
14:00+24ю453897 0.0 10201879
17:00+24ююз4536100 0.0 10191881
20:00+20ю245648 0.0 101977